{"data":{"norad_id":60120,"epoch":"2026-05-25T03:38:16.747872Z","epoch_age_seconds":55186,"freshness":"FRESH","line1":"1 60120U 24118H   26145.15158273  .00001085  00000+0  13811-4 0  9996","line2":"2 60120  53.1595 204.2481 0001237  69.3398 290.7753 15.69717380110003","mean_motion":15.6971738,"eccentricity":0.0001237,"inclination_deg":53.1595,"raan_deg":204.2481,"arg_perigee_deg":69.3398,"mean_anomaly_deg":290.7753,"bstar":1.3811e-5,"rev_number":11000,"period_min":91.73625891815,"perigee_km":358.87216063389,"apogee_km":360.53910290099,"semimajor_km":6737.8426317674,"source":"CELESTRAK","updated_at":"2026-05-25T13:38:19.166779Z"}}